| time (UTC) | temp F | wind direction | speed MPH | gust MPH | rain 1hr in | rain 24hr in | rain mn in | humidity % | barometer mb |
| 20260504081551 | 42 | 150 | 2.0 | 6.0 | 0.00 | 0.00 | 0.00 | 64 | 1012.6 |
| 20260504050019 | 45 | 230 | 2.0 | 8.0 | 0.00 | 0.00 | 0.00 | 58 | 1013.8 |
| 20260504044526 | 45 | 293 | 4.0 | 8.0 | 0.00 | 0.00 | 0.00 | 58 | 1013.9 |
| 20260504043118 | 45 | 196 | 1.0 | 9.0 | 0.00 | 0.00 | 0.00 | 57 | 1014.0 |
| 20260504041516 | 45 | 250 | 2.0 | 8.0 | 0.00 | 0.00 | 0.00 | 57 | 1013.9 |
| 20260504040018 | 46 | 262 | 1.0 | 6.0 | 0.00 | 0.00 | 0.00 | 56 | 1013.9 |
| 20260504034512 | 46 | 268 | 2.0 | 8.0 | 0.00 | 0.00 | 0.00 | 56 | 1013.9 |
| 20260504033111 | 46 | 241 | 2.0 | 8.0 | 0.00 | 0.00 | 0.00 | 55 | 1014.1 |
| 20260504031511 | 46 | 258 | 2.0 | 7.0 | 0.00 | 0.00 | 0.00 | 55 | 1014.2 |
| 20260504030008 | 46 | 262 | 2.0 | 7.0 | 0.00 | 0.00 | 0.00 | 54 | 1014.3 |
| 20260504024506 | 47 | 268 | 3.0 | 7.0 | 0.00 | 0.00 | 0.00 | 54 | 1014.3 |
| 20260504023105 | 46 | 264 | 2.0 | 5.0 | 0.00 | 0.00 | 0.00 | 54 | 1014.3 |
| 20260504021504 | 47 | 289 | 1.0 | 5.0 | 0.00 | 0.00 | 0.00 | 53 | 1014.4 |
| 20260504020003 | 47 | 278 | 1.0 | 4.0 | 0.00 | 0.00 | 0.00 | 53 | 1014.3 |
| 20260504014504 | 47 | 310 | 1.0 | 7.0 | 0.00 | 0.00 | 0.00 | 52 | 1014.2 |
| 20260504013002 | 48 | 276 | 2.0 | 6.0 | 0.00 | 0.00 | 0.00 | 51 | 1014.1 |
| 20260504011503 | 48 | 247 | 3.0 | 7.0 | 0.00 | 0.00 | 0.00 | 51 | 1014.0 |
| 20260504010002 | 48 | 278 | 2.0 | 6.0 | 0.00 | 0.00 | 0.00 | 50 | 1014.2 |
| 20260504004505 | 48 | 261 | 1.0 | 4.0 | 0.00 | 0.00 | 0.00 | 49 | 1014.2 |
| 20260504003101 | 49 | 234 | 1.0 | 5.0 | 0.00 | 0.00 | 0.00 | 48 | 1014.1 |
| 20260504001602 | 49 | 266 | 2.0 | 7.0 | 0.00 | 0.00 | 0.00 | 48 | 1014.0 |
| 20260504000101 | 50 | 305 | 2.0 | 8.0 | 0.00 | 0.00 | 0.00 | 48 | 1014.0 |
| 20260503234557 | 50 | 272 | 3.0 | 9.0 | 0.00 | 0.00 | 0.00 | 47 | 1014.1 |
| 20260503233057 | 50 | 258 | 4.0 | 9.0 | 0.00 | 0.00 | 0.00 | 46 | 1013.9 |
| 20260503231604 | 50 | 290 | 2.0 | 6.0 | 0.00 | 0.00 | 0.00 | 46 | 1013.7 |
| 20260503230110 | 51 | 278 | 3.0 | 10.0 | 0.00 | 0.00 | 0.00 | 45 | 1013.9 |
| 20260503224603 | 50 | 296 | 7.0 | 16.0 | 0.00 | 0.00 | 0.00 | 44 | 1013.9 |
| 20260503223055 | 52 | 263 | 5.0 | 9.0 | 0.00 | 0.00 | 0.00 | 43 | 1013.9 |
| 20260503221601 | 51 | 302 | 3.0 | 9.0 | 0.00 | 0.00 | 0.00 | 46 | 1013.9 |
| 20260503220055 | 51 | 277 | 4.0 | 9.0 | 0.00 | 0.00 | 0.00 | 44 | 1013.9 |
| 20260503214554 | 51 | 295 | 4.0 | 11.0 | 0.00 | 0.00 | 0.00 | 45 | 1013.8 |
| 20260503213100 | 51 | 328 | 5.0 | 10.0 | 0.00 | 0.00 | 0.00 | 45 | 1013.5 |
| 20260503211605 | 51 | 292 | 4.0 | 11.0 | 0.00 | 0.00 | 0.00 | 45 | 1013.7 |
| 20260503210046 | 50 | 343 | 6.0 | 13.0 | 0.00 | 0.00 | 0.00 | 45 | 1013.7 |
| 20260503204546 | 51 | 274 | 5.0 | 11.0 | 0.00 | 0.00 | 0.00 | 44 | 1013.8 |
| 20260503203048 | 50 | 311 | 3.0 | 8.0 | 0.00 | 0.00 | 0.00 | 45 | 1013.9 |
| 20260503201542 | 50 | 320 | 7.0 | 13.0 | 0.00 | 0.00 | 0.00 | 44 | 1013.7 |
| 20260503200053 | 50 | 310 | 3.0 | 9.0 | 0.00 | 0.00 | 0.00 | 45 | 1014.1 |
| 20260503194539 | 50 | 309 | 4.0 | 11.0 | 0.00 | 0.00 | 0.00 | 45 | 1014.3 |
| 20260503193040 | 50 | 324 | 6.0 | 14.0 | 0.00 | 0.00 | 0.00 | 45 | 1014.6 |
| 20260503191544 | 49 | 323 | 3.0 | 10.0 | 0.00 | 0.00 | 0.00 | 49 | 1014.8 |
| 20260503190039 | 48 | 315 | 7.0 | 13.0 | 0.00 | 0.00 | 0.00 | 49 | 1015.0 |
| 20260503184543 | 48 | 314 | 5.0 | 12.0 | 0.00 | 0.00 | 0.00 | 48 | 1014.8 |
| 20260503183040 | 48 | 293 | 4.0 | 11.0 | 0.00 | 0.00 | 0.00 | 49 | 1014.9 |
| 20260503181528 | 49 | 296 | 6.0 | 11.0 | 0.00 | 0.00 | 0.00 | 47 | 1015.0 |
| 20260503180043 | 48 | 322 | 7.0 | 13.0 | 0.00 | 0.00 | 0.00 | 47 | 1015.2 |
| 20260503174541 | 48 | 305 | 6.0 | 13.0 | 0.00 | 0.00 | 0.00 | 47 | 1015.4 |
| 20260503173035 | 49 | 320 | 5.0 | 10.0 | 0.00 | 0.00 | 0.00 | 47 | 1015.3 |
| 20260503171528 | 48 | 289 | 7.0 | 14.0 | 0.00 | 0.00 | 0.00 | 46 | 1015.3 |